Total_Precipitation_Accumulation
0.05 0.09 0.15 0.17 0.18 0.16 0.12 0.11 0.16 0.20 0.38 0.42 0.54 0.71 0.88 0.90 0.81 0.74 0.80 0.83 0.83 0.91 1.09 1.23 1.40 1.44 1.42 1.45 1.51 1.64 1.74 1.81 2.01 2.20 2.26 2.15 2.10 2.16 2.19 2.23 2.16 2.33 2.35 2.38
0.05 0.08 0.14 0.16 0.18 0.13 0.09 0.09 0.13 0.19 0.32 0.39 0.54 0.65 0.74 0.72 0.71 0.81 0.85 0.84 0.79 0.89 1.11 1.18 1.23 1.31 1.34 1.39 1.46 1.53 1.61 1.78 2.02 2.24 2.37 2.33 2.37 2.52 2.52 2.47 2.57 2.70 2.67 2.66
0.08 0.11 0.13 0.22 0.18 0.14 0.14 0.13 0.16 0.25 0.31 0.37 0.50 0.65 0.78 0.80 0.84 0.89 0.90 0.87 0.85 0.87 0.99 1.21 1.16 1.16 1.29 1.40 1.54 1.68 1.93 2.13 2.24 2.40 2.55 2.53 2.47 2.51 2.54 2.59 2.59 2.66 2.68 2.73
0.14 0.17 0.25 0.25 0.21 0.20 0.23 0.28 0.28 0.32 0.38 0.46 0.56 0.70 0.83 0.88 0.87 0.99 1.08 1.16 1.20 1.27 1.27 1.36 1.31 1.32 1.41 1.55 1.72 1.80 1.91 2.12 2.27 2.47 2.58 2.61 2.67 2.67 2.74 2.85 2.86 2.87 2.85 2.84
0.24 0.26 0.30 0.31 0.31 0.34 0.39 0.51 0.55 0.61 0.66 0.67 0.70 0.75 0.90 1.02 1.10 1.19 1.16 1.23 1.36 1.43 1.46 1.47 1.52 1.65 1.84 1.90 2.07 2.25 2.35 2.51 2.59 2.61 2.69 2.73 2.75 2.89 3.01 3.12 3.11 3.12 3.09 3.04
0.34 0.43 0.50 0.51 0.50 0.46 0.55 0.88 0.79 0.87 0.97 0.96 1.02 1.26 1.33 1.32 1.32 1.36 1.33 1.37 1.46 1.49 1.53 1.73 1.79 1.86 2.04 2.27 2.44 2.62 2.78 2.88 2.93 2.96 2.96 2.90 2.91 3.01 3.07 3.13 3.13 3.15 3.06 3.08
0.47 0.50 0.54 0.55 0.55 0.56 0.98 1.33 1.26 1.27 1.31 1.24 1.38 1.48 1.36 1.28 1.41 1.47 1.53 1.59 1.61 1.64 1.72 1.86 1.94 2.02 2.21 2.49 2.73 2.93 2.97 3.01 3.06 3.12 3.24 3.33 3.38 3.19 3.04 3.03 3.11 3.20 3.18 3.23
0.72 0.88 0.95 0.67 0.75 1.11 1.39 1.33 1.55 1.44 1.30 1.32 1.32 1.27 1.22 1.24 1.41 1.59 1.71 1.75 1.77 1.80 1.84 1.89 2.02 2.17 2.29 2.53 2.67 2.85 2.89 3.00 3.07 3.08 3.00 3.02 3.27 3.32 3.28 3.19 3.10 3.12 3.20 3.12
1.06 1.19 1.07 0.89 0.96 1.23 1.28 1.29 1.44 1.44 1.25 1.21 1.22 1.16 1.18 1.25 1.36 1.50 1.62 1.69 1.70 1.75 1.89 1.90 1.93 2.12 2.40 2.47 2.54 2.58 2.71 2.83 3.01 3.09 3.14 3.10 3.07 3.15 3.16 3.12 2.97 2.78 2.81 2.84
1.40 1.42 1.28 1.12 1.01 1.09 1.16 1.23 1.29 1.42 1.42 1.30 1.25 1.19 1.25 1.28 1.31 1.49 1.63 1.68 1.74 1.70 1.73 1.84 1.94 2.11 2.21 2.25 2.38 2.61 2.73 2.76 2.82 2.90 2.96 3.03 3.10 3.04 3.00 2.99 2.95 2.78 2.76 2.79
1.91 1.97 1.80 1.63 1.40 1.29 1.26 1.28 1.38 1.49 1.55 1.61 1.55 1.47 1.48 1.41 1.41 1.53 1.61 1.59 1.68 1.77 1.80 1.87 1.93 2.08 2.23 2.28 2.34 2.47 2.52 2.47 2.54 2.71 2.81 2.88 3.01 3.06 2.89 2.78 2.81 2.70 2.74 2.91
2.29 2.11 2.12 1.98 1.62 1.46 1.48 1.58 1.57 1.59 1.63 1.60 1.59 1.57 1.58 1.61 1.53 1.45 1.43 1.55 1.70 1.78 1.84 1.88 1.92 2.00 2.05 2.11 2.25 2.40 2.48 2.48 2.47 2.51 2.66 2.76 2.71 2.77 2.79 2.54 2.47 2.32 2.35 2.43
1.93 1.92 1.99 1.88 1.72 1.62 1.65 1.64 1.69 1.75 1.71 1.62 1.56 1.56 1.55 1.61 1.65 1.56 1.51 1.55 1.69 1.74 1.76 1.81 1.81 1.86 1.87 1.94 2.18 2.44 2.55 2.65 2.60 2.42 2.37 2.42 2.43 2.40 2.41 2.31 2.05 1.91 1.86 1.83
1.95 1.98 2.07 1.97 1.93 1.77 1.75 1.64 1.59 1.57 1.49 1.49 1.54 1.56 1.52 1.51 1.61 1.71 1.68 1.69 1.83 1.89 1.76 1.66 1.66 1.72 1.77 1.83 1.95 2.11 2.19 2.28 2.27 2.15 2.08 2.06 2.07 2.07 1.97 1.97 1.90 1.74 1.68 1.64
1.80 1.81 1.92 1.85 1.81 1.82 1.83 1.78 1.68 1.58 1.46 1.52 1.58 1.57 1.61 1.68 1.76 1.87 1.90 1.95 2.01 2.00 1.83 1.65 1.60 1.64 1.69 1.78 1.89 1.93 2.01 2.02 1.95 1.96 2.01 2.05 2.13 2.16 2.07 1.98 2.00 1.94 1.80 1.63
1.65 1.71 1.72 1.79 1.93 1.83 1.76 1.77 1.78 1.72 1.58 1.57 1.62 1.59 1.59 1.67 1.81 1.84 1.86 2.01 2.17 2.16 2.00 1.87 1.74 1.67 1.63 1.76 1.91 1.94 1.93 2.07 2.00 1.88 1.90 2.08 2.21 2.18 2.21 2.26 2.21 2.24 2.21 1.90
1.77 1.81 1.73 1.79 1.92 1.93 1.87 1.81 1.83 1.78 1.73 1.73 1.72 1.60 1.61 1.69 1.81 1.90 1.80 1.77 1.87 1.95 1.94 1.88 1.76 1.64 1.65 1.71 1.78 1.89 1.87 1.92 1.95 1.86 1.89 2.01 2.12 2.21 2.21 2.25 2.32 2.33 2.29 2.09
1.64 1.55 1.53 1.61 1.67 1.75 1.82 1.85 1.86 1.77 1.71 1.69 1.71 1.66 1.66 1.74 1.87 1.91 1.83 1.72 1.65 1.64 1.70 1.68 1.59 1.55 1.57 1.60 1.69 1.84 1.86 1.86 1.88 1.92 1.97 2.02 2.05 2.18 2.34 2.37 2.38 2.42 2.28 2.18
1.60 1.49 1.43 1.44 1.43 1.49 1.62 1.73 1.76 1.71 1.63 1.64 1.70 1.68 1.63 1.62 1.72 1.82 1.79 1.86 1.89 1.79 1.68 1.55 1.50 1.42 1.48 1.53 1.55 1.62 1.66 1.74 1.86 1.90 1.92 1.95 1.99 2.06 2.16 2.21 2.27 2.30 2.14 2.09
1.73 1.65 1.50 1.43 1.42 1.40 1.48 1.51 1.58 1.62 1.56 1.56 1.57 1.59 1.59 1.58 1.67 1.88 1.98 2.02 2.08 1.96 1.79 1.61 1.34 1.25 1.31 1.38 1.36 1.26 1.29 1.37 1.42 1.50 1.62 1.71 1.78 1.88 1.87 1.85 1.90 1.96 1.88 1.86
1.88 1.79 1.65 1.55 1.57 1.51 1.47 1.43 1.47 1.57 1.57 1.59 1.69 1.73 1.65 1.57 1.59 1.83 2.17 2.27 2.10 1.89 1.75 1.69 1.36 1.13 1.05 1.14 1.26 1.23 1.27 1.27 1.26 1.33 1.41 1.50 1.60 1.66 1.73 1.76 1.73 1.70 1.68 1.65
1.96 1.87 1.76 1.65 1.57 1.57 1.53 1.46 1.47 1.53 1.56 1.60 1.58 1.58 1.60 1.53 1.52 1.71 1.91 2.12 2.00 1.84 1.51 1.40 1.27 1.08 1.04 1.01 1.01 1.13 1.23 1.27 1.27 1.31 1.35 1.40 1.47 1.54 1.62 1.63 1.60 1.52 1.50 1.51
1.99 1.86 1.77 1.65 1.57 1.55 1.50 1.51 1.47 1.48 1.50 1.48 1.44 1.50 1.58 1.59 1.53 1.68 1.81 1.64 1.51 1.54 1.37 1.30 1.22 1.08 0.99 0.94 0.98 1.02 1.09 1.16 1.19 1.21 1.23 1.27 1.33 1.38 1.44 1.48 1.49 1.40 1.41 1.43
1.88 1.91 1.94 1.87 1.66 1.55 1.57 1.55 1.50 1.47 1.41 1.41 1.40 1.43 1.49 1.53 1.50 1.43 1.46 1.48 1.46 1.41 1.30 1.29 1.17 1.00 0.89 0.82 0.89 0.98 1.06 1.12 1.13 1.12 1.13 1.19 1.25 1.31 1.40 1.46 1.50 1.44 1.39 1.33
1.80 1.81 1.85 1.86 1.74 1.62 1.55 1.51 1.56 1.59 1.51 1.47 1.41 1.39 1.36 1.38 1.43 1.42 1.38 1.37 1.41 1.33 1.21 1.23 1.16 1.10 1.00 0.97 1.01 1.07 1.11 1.17 1.20 1.19 1.21 1.25 1.29 1.34 1.39 1.44 1.46 1.41 1.38 1.36
1.77 1.73 1.74 1.71 1.61 1.60 1.60 1.59 1.66 1.68 1.59 1.51 1.46 1.41 1.35 1.29 1.32 1.39 1.47 1.43 1.29 1.24 1.15 1.13 1.10 1.12 1.09 1.14 1.20 1.19 1.14 1.16 1.17 1.15 1.21 1.32 1.39 1.41 1.39 1.34 1.35 1.37 1.29 1.23
1.73 1.69 1.69 1.62 1.57 1.53 1.54 1.54 1.59 1.66 1.59 1.48 1.49 1.48 1.45 1.46 1.48 1.49 1.49 1.47 1.36 1.25 1.18 1.14 1.09 1.02 1.03 1.08 1.13 1.19 1.19 1.19 1.20 1.21 1.25 1.30 1.33 1.31 1.26 1.23 1.26 1.29 1.21 1.18